Weather in Edinburgh

United Kingdom     55°57′00″N   3°12′29″W
temp.,
°C
wind,
m/s
gust,
m/s
humid.,
%
clouds,
%
prec.,
mm/h
press.,
hPa
HPBL,
m
12 april, mon
mon1201:00+1wsw11751 0.6 102534
04:00−1wsw22755 0.0 102684
07:00−1wsw23721 0.0 1027104
10:00+3w22490 0.0 1028629
13:00+7wnw23310 0.0 10281641
16:00+8wnw24315 0.0 10271784
19:00+7w24366 0.0 10281154
22:00+3wsw35555 0.0 1030166
13 april, tue
tue1301:00+1wsw236714 0.0 1031108
04:000wsw23695 0.0 1032101
07:000wsw22698 0.0 103292
10:00+5w12475 0.0 1033493
13:00+9nnw12345 0.0 10321130
16:00+9nne22365 0.0 10311412
19:00+9e22436 0.0 1031412
22:00+5s12595 0.0 103237
14 april, wed
wed1401:00+3wsw12720 0.0 103384
04:00+2w11800 0.0 103346
07:00+2w11803 0.0 103445
10:00+6ene11613 0.0 1034383
13:00+8ene22535 0.0 1034712
16:00+8ene42536 0.0 1033629
19:00+7ene23595 0.0 1033257
22:00+5ene23775 0.0 103494
15 april, thu
thu1501:00+4ne117723 0.0 103449
04:00+3ne11797 0.0 103436
07:00+3ne11785 0.0 103442
10:00+7ene22596 0.0 1034432
13:00+9ne43538 0.0 1033901
16:00+9ne555537 0.0 1032674
19:00+8ene465893 0.0 1031373
22:00+5ese26655 0.0 1032256
16 april, fri
fri1601:00+4se12713 0.0 103291
04:00+2ssw01740 0.0 103251
07:00+2ssw01744 0.0 103363
10:00+6ne11584 0.0 1033469
13:00+9ene33464 0.0 10321174
16:00+10ne444816 0.0 10321052
19:00+9e35546 0.0 1031423
22:00+6se37655 0.0 1033270